Year,Month,Day,Hour,Minute,Value (Times are PST for temperature in C)
2008,11,24,00,00,1.40
2008,11,24,00,01,1.40
2008,11,24,00,02,1.40
2008,11,24,00,03,1.40
2008,11,24,00,04,1.30
2008,11,24,00,05,1.30
2008,11,24,00,06,1.30
2008,11,24,00,07,1.30
2008,11,24,00,08,1.30
2008,11,24,00,09,1.30
2008,11,24,00,10,1.30
2008,11,24,00,11,1.30
2008,11,24,00,12,1.30
2008,11,24,00,13,1.30
2008,11,24,00,14,1.30
2008,11,24,00,15,1.30
2008,11,24,00,16,1.30
2008,11,24,00,17,1.30
2008,11,24,00,18,1.30
2008,11,24,00,19,1.30
2008,11,24,00,20,1.30
2008,11,24,00,21,1.30
2008,11,24,00,22,1.30
2008,11,24,00,23,1.30
2008,11,24,00,24,1.30
2008,11,24,00,25,1.30
2008,11,24,00,26,1.30
2008,11,24,00,27,1.30
2008,11,24,00,28,1.30
2008,11,24,00,29,1.30
2008,11,24,00,30,1.30
2008,11,24,00,31,1.30
2008,11,24,00,32,1.30
2008,11,24,00,33,1.30
2008,11,24,00,34,1.30
2008,11,24,00,35,1.30
2008,11,24,00,36,1.30
2008,11,24,00,37,1.30
2008,11,24,00,38,1.20
2008,11,24,00,39,1.20
2008,11,24,00,40,1.20
2008,11,24,00,41,1.20
2008,11,24,00,42,1.20
2008,11,24,00,43,1.20
2008,11,24,00,44,1.20
2008,11,24,00,45,1.20
2008,11,24,00,46,1.20
2008,11,24,00,47,1.20
2008,11,24,00,48,1.10
2008,11,24,00,49,1.10
2008,11,24,00,50,1.10
2008,11,24,00,51,1.10
2008,11,24,00,52,1.10
2008,11,24,00,53,1.10
2008,11,24,00,54,1.10
2008,11,24,00,55,1.10
2008,11,24,00,56,1.10
2008,11,24,00,57,1.10
2008,11,24,00,58,1.10
2008,11,24,00,59,1.20
2008,11,24,01,00,1.20
2008,11,24,01,01,1.20
2008,11,24,01,02,1.20
2008,11,24,01,03,1.20
2008,11,24,01,04,1.30
2008,11,24,01,05,1.30
2008,11,24,01,06,1.30
2008,11,24,01,07,1.30
2008,11,24,01,08,1.30
2008,11,24,01,09,1.30
2008,11,24,01,10,1.30
2008,11,24,01,11,1.30
2008,11,24,01,12,1.30
2008,11,24,01,13,1.30
2008,11,24,01,14,1.30
2008,11,24,01,15,1.30
2008,11,24,01,16,1.30
2008,11,24,01,17,1.30
2008,11,24,01,18,1.30
2008,11,24,01,19,1.30
2008,11,24,01,20,1.30
2008,11,24,01,21,1.30
2008,11,24,01,22,1.30
2008,11,24,01,23,1.30
2008,11,24,01,24,1.30
2008,11,24,01,25,1.30
2008,11,24,01,26,1.30
2008,11,24,01,27,1.30
2008,11,24,01,28,1.30
2008,11,24,01,29,1.30
2008,11,24,01,30,1.30
2008,11,24,01,31,1.30
2008,11,24,01,32,1.30
2008,11,24,01,33,1.30
2008,11,24,01,34,1.30
2008,11,24,01,35,1.30
2008,11,24,01,36,1.30
2008,11,24,01,37,1.30
2008,11,24,01,38,1.30
2008,11,24,01,39,1.30
2008,11,24,01,40,1.30
2008,11,24,01,41,1.30
2008,11,24,01,42,1.30
2008,11,24,01,43,1.30
2008,11,24,01,44,1.30
2008,11,24,01,45,1.30
2008,11,24,01,46,1.30
2008,11,24,01,47,1.30
2008,11,24,01,48,1.30
2008,11,24,01,49,1.30
2008,11,24,01,50,1.30
2008,11,24,01,51,1.30
2008,11,24,01,52,1.30
2008,11,24,01,53,1.30
2008,11,24,01,54,1.30
2008,11,24,01,55,1.30
2008,11,24,01,56,1.30
2008,11,24,01,57,1.40
2008,11,24,01,58,1.40
2008,11,24,01,59,1.50
2008,11,24,02,00,1.50
2008,11,24,02,01,1.50
2008,11,24,02,02,1.60
2008,11,24,02,03,1.60
2008,11,24,02,04,1.60
2008,11,24,02,05,1.70
2008,11,24,02,06,1.70
2008,11,24,02,07,1.70
2008,11,24,02,08,1.70
2008,11,24,02,09,1.70
2008,11,24,02,10,1.70
2008,11,24,02,11,1.80
2008,11,24,02,12,1.80
2008,11,24,02,13,1.80
2008,11,24,02,14,1.80
2008,11,24,02,15,1.80
2008,11,24,02,16,1.90
2008,11,24,02,17,2.00
2008,11,24,02,18,2.00
2008,11,24,02,19,2.10
2008,11,24,02,20,2.10
2008,11,24,02,21,2.20
2008,11,24,02,22,2.20
2008,11,24,02,23,2.20
2008,11,24,02,24,2.30
2008,11,24,02,25,2.30
2008,11,24,02,26,2.30
2008,11,24,02,27,2.30
2008,11,24,02,28,2.40
2008,11,24,02,29,2.40
2008,11,24,02,30,2.40
2008,11,24,02,31,2.40
2008,11,24,02,32,2.50
2008,11,24,02,33,2.50
2008,11,24,02,34,2.50
2008,11,24,02,35,2.50
2008,11,24,02,36,2.50
2008,11,24,02,37,2.50
2008,11,24,02,38,2.50
2008,11,24,02,39,2.50
2008,11,24,02,40,2.50
2008,11,24,02,41,2.50
2008,11,24,02,42,2.50
2008,11,24,02,43,2.50
2008,11,24,02,44,2.50
2008,11,24,02,45,2.50
2008,11,24,02,46,2.50
2008,11,24,02,47,2.50
2008,11,24,02,48,2.50
2008,11,24,02,49,2.60
2008,11,24,02,50,2.60
2008,11,24,02,51,2.60
2008,11,24,02,52,2.70
2008,11,24,02,53,2.70
2008,11,24,02,54,2.90
2008,11,24,02,55,3.00
2008,11,24,02,56,3.20
2008,11,24,02,57,3.40
2008,11,24,02,58,3.70
2008,11,24,02,59,4.00
2008,11,24,03,00,4.20
2008,11,24,03,01,4.40
2008,11,24,03,02,4.50
2008,11,24,03,03,4.60
2008,11,24,03,04,4.70
2008,11,24,03,05,4.70
2008,11,24,03,06,4.70
2008,11,24,03,07,4.80
2008,11,24,03,08,4.80
2008,11,24,03,09,4.80
2008,11,24,03,10,4.80
2008,11,24,03,11,4.80
2008,11,24,03,12,4.80
2008,11,24,03,13,4.80
2008,11,24,03,14,4.70
2008,11,24,03,15,4.70
2008,11,24,03,16,4.70
2008,11,24,03,17,4.70
2008,11,24,03,18,4.80
2008,11,24,03,19,4.80
2008,11,24,03,20,4.80
2008,11,24,03,21,4.80
2008,11,24,03,22,4.70
2008,11,24,03,23,4.60
2008,11,24,03,24,4.50
2008,11,24,03,25,4.40
2008,11,24,03,26,4.30
2008,11,24,03,27,4.20
2008,11,24,03,28,4.10
2008,11,24,03,29,3.90
2008,11,24,03,30,3.80
2008,11,24,03,31,3.70
2008,11,24,03,32,3.60
2008,11,24,03,33,3.60
2008,11,24,03,34,3.50
2008,11,24,03,35,3.40
2008,11,24,03,36,3.30
2008,11,24,03,37,3.30
2008,11,24,03,38,3.30
2008,11,24,03,39,3.30
2008,11,24,03,40,3.30
2008,11,24,03,41,3.30
2008,11,24,03,42,3.40
2008,11,24,03,43,3.50
2008,11,24,03,44,3.60
2008,11,24,03,45,3.60
2008,11,24,03,46,3.60
2008,11,24,03,47,3.60
2008,11,24,03,48,3.60
2008,11,24,03,49,3.50
2008,11,24,03,50,3.50
2008,11,24,03,51,3.40
2008,11,24,03,52,3.40
2008,11,24,03,53,3.30
2008,11,24,03,54,3.30
2008,11,24,03,55,3.30
2008,11,24,03,56,3.30
2008,11,24,03,57,3.20
2008,11,24,03,58,3.20
2008,11,24,03,59,3.10
2008,11,24,04,00,3.10
2008,11,24,04,01,3.00
2008,11,24,04,02,3.00
2008,11,24,04,03,2.90
2008,11,24,04,04,2.90
2008,11,24,04,05,2.90
2008,11,24,04,06,2.90
2008,11,24,04,07,2.90
2008,11,24,04,08,2.90
2008,11,24,04,09,2.90
2008,11,24,04,10,2.90
2008,11,24,04,11,2.90
2008,11,24,04,12,2.90
2008,11,24,04,13,2.90
2008,11,24,04,14,2.90
2008,11,24,04,15,2.90
2008,11,24,04,16,2.90
2008,11,24,04,17,2.90
2008,11,24,04,18,2.90
2008,11,24,04,19,2.90
2008,11,24,04,20,2.90
2008,11,24,04,21,2.90
2008,11,24,04,22,2.90
2008,11,24,04,23,2.90
2008,11,24,04,24,2.90
2008,11,24,04,25,2.90
2008,11,24,04,26,3.00
2008,11,24,04,27,3.00
2008,11,24,04,28,3.00
2008,11,24,04,29,3.00
2008,11,24,04,30,3.10
2008,11,24,04,31,3.10
2008,11,24,04,32,3.10
2008,11,24,04,33,3.10
2008,11,24,04,34,3.10
2008,11,24,04,35,3.10
2008,11,24,04,36,3.10
2008,11,24,04,37,3.00
2008,11,24,04,38,3.00
2008,11,24,04,39,3.00
2008,11,24,04,40,3.00
2008,11,24,04,41,3.00
2008,11,24,04,42,2.90
2008,11,24,04,43,2.90
2008,11,24,04,44,2.80
2008,11,24,04,45,2.80
2008,11,24,04,46,2.90
2008,11,24,04,47,2.90
2008,11,24,04,48,2.90
2008,11,24,04,49,2.90
2008,11,24,04,50,2.90
2008,11,24,04,51,2.90
2008,11,24,04,52,2.90
2008,11,24,04,53,3.00
2008,11,24,04,54,3.00
2008,11,24,04,55,3.00
2008,11,24,04,56,3.00
2008,11,24,04,57,3.00
2008,11,24,04,58,3.00
2008,11,24,04,59,2.90
2008,11,24,05,00,2.90
2008,11,24,05,01,2.80
2008,11,24,05,02,2.80
2008,11,24,05,03,2.70
2008,11,24,05,04,2.70
2008,11,24,05,05,2.70
2008,11,24,05,06,2.60
2008,11,24,05,07,2.60
2008,11,24,05,08,2.60
2008,11,24,05,09,2.60
2008,11,24,05,10,2.60
2008,11,24,05,11,2.60
2008,11,24,05,12,2.60
2008,11,24,05,13,2.60
2008,11,24,05,14,2.50
2008,11,24,05,15,2.50
2008,11,24,05,16,2.40
2008,11,24,05,17,2.40
2008,11,24,05,18,2.40
2008,11,24,05,19,2.40
2008,11,24,05,20,2.40
2008,11,24,05,21,2.40
2008,11,24,05,22,2.40
2008,11,24,05,23,2.50
2008,11,24,05,24,2.50
2008,11,24,05,25,2.60
2008,11,24,05,26,2.70
2008,11,24,05,27,2.80
2008,11,24,05,28,2.90
2008,11,24,05,29,3.00
2008,11,24,05,30,3.10
2008,11,24,05,31,3.20
2008,11,24,05,32,3.30
2008,11,24,05,33,3.40
2008,11,24,05,34,3.40
2008,11,24,05,35,3.40
2008,11,24,05,36,3.40
2008,11,24,05,37,3.40
2008,11,24,05,38,3.50
2008,11,24,05,39,3.50
2008,11,24,05,40,3.60
2008,11,24,05,41,3.60
2008,11,24,05,42,3.60
2008,11,24,05,43,3.70
2008,11,24,05,44,3.70
2008,11,24,05,45,3.70
2008,11,24,05,46,3.70
2008,11,24,05,47,3.70
2008,11,24,05,48,3.70
2008,11,24,05,49,3.60
2008,11,24,05,50,3.60
2008,11,24,05,51,3.60
2008,11,24,05,52,3.60
2008,11,24,05,53,3.60
2008,11,24,05,54,3.50
2008,11,24,05,55,3.50
2008,11,24,05,56,3.50
2008,11,24,05,57,3.40
2008,11,24,05,58,3.30
2008,11,24,05,59,3.30
2008,11,24,06,00,3.30
2008,11,24,06,01,3.30
2008,11,24,06,02,3.40
2008,11,24,06,03,3.40
2008,11,24,06,04,3.50
2008,11,24,06,05,3.60
2008,11,24,06,06,3.70
2008,11,24,06,07,3.80
2008,11,24,06,08,3.90
2008,11,24,06,09,4.10
2008,11,24,06,10,4.20
2008,11,24,06,11,4.40
2008,11,24,06,12,4.60
2008,11,24,06,13,4.70
2008,11,24,06,14,4.80
2008,11,24,06,15,4.90
2008,11,24,06,16,5.00
2008,11,24,06,17,5.00
2008,11,24,06,18,5.00
2008,11,24,06,19,5.10
2008,11,24,06,20,5.10
2008,11,24,06,21,5.00
2008,11,24,06,22,5.00
2008,11,24,06,23,5.00
2008,11,24,06,24,5.10
2008,11,24,06,25,5.10
2008,11,24,06,26,5.10
2008,11,24,06,27,5.20
2008,11,24,06,28,5.20
2008,11,24,06,29,5.20
2008,11,24,06,30,5.20
2008,11,24,06,31,5.20
2008,11,24,06,32,5.10
2008,11,24,06,33,5.00
2008,11,24,06,34,4.90
2008,11,24,06,35,4.90
2008,11,24,06,36,4.80
2008,11,24,06,37,4.80
2008,11,24,06,38,4.70
2008,11,24,06,39,4.60
2008,11,24,06,40,4.60
2008,11,24,06,41,4.50
2008,11,24,06,42,4.40
2008,11,24,06,43,4.30
2008,11,24,06,44,4.20
2008,11,24,06,45,4.10
2008,11,24,06,46,4.10
2008,11,24,06,47,4.00
2008,11,24,06,48,3.90
2008,11,24,06,49,3.90
2008,11,24,06,50,4.00
2008,11,24,06,51,4.10
2008,11,24,06,52,4.10
2008,11,24,06,53,4.10
2008,11,24,06,54,4.10
2008,11,24,06,55,4.10
2008,11,24,06,56,4.20
2008,11,24,06,57,4.20
2008,11,24,06,58,4.30
2008,11,24,06,59,4.40
2008,11,24,07,00,4.50
2008,11,24,07,01,4.50
2008,11,24,07,02,4.50
2008,11,24,07,03,4.40
2008,11,24,07,04,4.40
2008,11,24,07,05,4.50
2008,11,24,07,06,4.60
2008,11,24,07,07,4.60
2008,11,24,07,08,4.60
2008,11,24,07,09,4.60
2008,11,24,07,10,4.60
2008,11,24,07,11,4.70
2008,11,24,07,12,4.70
2008,11,24,07,13,4.80
2008,11,24,07,14,4.80
2008,11,24,07,15,4.80
2008,11,24,07,16,4.80
2008,11,24,07,17,4.80
2008,11,24,07,18,4.80
2008,11,24,07,19,4.80
2008,11,24,07,20,4.80
2008,11,24,07,21,4.80
2008,11,24,07,22,4.80
2008,11,24,07,23,4.80
2008,11,24,07,24,4.90
2008,11,24,07,25,5.00
2008,11,24,07,26,5.00
2008,11,24,07,27,5.10
2008,11,24,07,28,5.20
2008,11,24,07,29,5.30
2008,11,24,07,30,5.30
2008,11,24,07,31,5.40
2008,11,24,07,32,5.40
2008,11,24,07,33,5.50
2008,11,24,07,34,5.50
2008,11,24,07,35,5.60
2008,11,24,07,36,5.70
2008,11,24,07,37,5.70
2008,11,24,07,38,5.80
2008,11,24,07,39,5.90
2008,11,24,07,40,5.90
2008,11,24,07,41,6.00
2008,11,24,07,42,6.10
2008,11,24,07,43,6.10
2008,11,24,07,44,6.10
2008,11,24,07,45,6.10
2008,11,24,07,46,6.10
2008,11,24,07,47,6.10
2008,11,24,07,48,6.00
2008,11,24,07,49,6.00
2008,11,24,07,50,6.00
2008,11,24,07,51,6.00
2008,11,24,07,52,6.00
2008,11,24,07,53,6.00
2008,11,24,07,54,6.00
2008,11,24,07,55,6.00
2008,11,24,07,56,6.00
2008,11,24,07,57,6.00
2008,11,24,07,58,6.00
2008,11,24,07,59,5.90
2008,11,24,08,00,5.90
2008,11,24,08,01,5.90
2008,11,24,08,02,6.00
2008,11,24,08,03,6.00
2008,11,24,08,04,6.10
2008,11,24,08,05,6.10
2008,11,24,08,06,6.10
2008,11,24,08,07,6.20
2008,11,24,08,08,6.20
2008,11,24,08,09,6.20
2008,11,24,08,10,6.30
2008,11,24,08,11,6.30
2008,11,24,08,12,6.30
2008,11,24,08,13,6.30
2008,11,24,08,14,6.30
2008,11,24,08,15,6.30
2008,11,24,08,16,6.30
2008,11,24,08,17,6.30
2008,11,24,08,18,6.30
2008,11,24,08,19,6.20
2008,11,24,08,20,6.20
2008,11,24,08,21,6.20
2008,11,24,08,22,6.20
2008,11,24,08,23,6.20
2008,11,24,08,24,6.20
2008,11,24,08,25,6.10
2008,11,24,08,26,6.10
2008,11,24,08,27,6.10
2008,11,24,08,28,6.10
2008,11,24,08,29,6.00
2008,11,24,08,30,6.00
2008,11,24,08,31,5.90
2008,11,24,08,32,5.90
2008,11,24,08,33,5.90
2008,11,24,08,34,5.90
2008,11,24,08,35,5.90
2008,11,24,08,36,5.90
2008,11,24,08,37,5.90
2008,11,24,08,38,5.90
2008,11,24,08,39,5.90
2008,11,24,08,40,5.90
2008,11,24,08,41,5.90
2008,11,24,08,42,5.90
2008,11,24,08,43,5.90
2008,11,24,08,44,5.90
2008,11,24,08,45,5.90
2008,11,24,08,46,5.90
2008,11,24,08,47,5.90
2008,11,24,08,48,6.00
2008,11,24,08,49,6.00
2008,11,24,08,50,6.10
2008,11,24,08,51,6.20
2008,11,24,08,52,6.20
2008,11,24,08,53,6.30
2008,11,24,08,54,6.30
2008,11,24,08,55,6.30
2008,11,24,08,56,6.40
2008,11,24,08,57,6.40
2008,11,24,08,58,6.40
2008,11,24,08,59,6.40
2008,11,24,09,00,6.50
2008,11,24,09,01,6.60
2008,11,24,09,02,6.60
2008,11,24,09,03,6.70
2008,11,24,09,04,6.70
2008,11,24,09,05,6.80
2008,11,24,09,06,6.80
2008,11,24,09,07,6.90
2008,11,24,09,08,6.90
2008,11,24,09,09,7.00
2008,11,24,09,10,7.00
2008,11,24,09,11,7.10
2008,11,24,09,12,7.10
2008,11,24,09,13,7.20
2008,11,24,09,14,7.20
2008,11,24,09,15,7.20
2008,11,24,09,16,7.20
2008,11,24,09,17,7.20
2008,11,24,09,18,7.30
2008,11,24,09,19,7.30
2008,11,24,09,20,7.40
2008,11,24,09,21,7.50
2008,11,24,09,22,7.60
2008,11,24,09,23,7.70
2008,11,24,09,24,7.70
2008,11,24,09,25,7.80
2008,11,24,09,26,7.90
2008,11,24,09,27,7.90
2008,11,24,09,28,8.00
2008,11,24,09,29,8.10
2008,11,24,09,30,8.20
2008,11,24,09,31,8.20
2008,11,24,09,32,8.20
2008,11,24,09,33,8.30
2008,11,24,09,34,8.30
2008,11,24,09,35,8.30
2008,11,24,09,36,8.30
2008,11,24,09,37,8.30
2008,11,24,09,38,8.40
2008,11,24,09,39,8.40
2008,11,24,09,40,8.40
2008,11,24,09,41,8.50
2008,11,24,09,42,8.50
2008,11,24,09,43,8.50
2008,11,24,09,44,8.60
2008,11,24,09,45,8.50
2008,11,24,09,46,8.50
2008,11,24,09,47,8.50
2008,11,24,09,48,8.50
2008,11,24,09,49,8.50
2008,11,24,09,50,8.50
2008,11,24,09,51,8.50
2008,11,24,09,52,8.60
2008,11,24,09,53,8.60
2008,11,24,09,54,8.60
2008,11,24,09,55,8.70
2008,11,24,09,56,8.70
2008,11,24,09,57,8.80
2008,11,24,09,58,8.80
2008,11,24,09,59,8.90
2008,11,24,10,00,8.90
2008,11,24,10,01,8.90
2008,11,24,10,02,8.90
2008,11,24,10,03,8.90
2008,11,24,10,04,8.90
2008,11,24,10,05,8.90
2008,11,24,10,06,8.90
2008,11,24,10,07,8.90
2008,11,24,10,08,8.90
2008,11,24,10,09,8.90
2008,11,24,10,10,8.80
2008,11,24,10,11,8.80
2008,11,24,10,12,8.80
2008,11,24,10,13,8.80
2008,11,24,10,14,8.80
2008,11,24,10,15,8.80
2008,11,24,10,16,8.80
2008,11,24,10,17,8.80
2008,11,24,10,18,8.80
2008,11,24,10,19,8.80
2008,11,24,10,20,8.80
2008,11,24,10,21,8.80
2008,11,24,10,22,8.90
2008,11,24,10,23,8.90
2008,11,24,10,24,8.90
2008,11,24,10,25,8.90
2008,11,24,10,26,9.00
2008,11,24,10,27,9.00
2008,11,24,10,28,9.00
2008,11,24,10,29,9.00
2008,11,24,10,30,9.10
2008,11,24,10,31,9.10
2008,11,24,10,32,9.20
2008,11,24,10,33,9.20
2008,11,24,10,34,9.20
2008,11,24,10,35,9.20
2008,11,24,10,36,9.30
2008,11,24,10,37,9.30
2008,11,24,10,38,9.40
2008,11,24,10,39,9.50
2008,11,24,10,40,9.60
2008,11,24,10,41,9.70
2008,11,24,10,42,9.80
2008,11,24,10,43,9.90
2008,11,24,10,44,9.90
2008,11,24,10,45,10.00
2008,11,24,10,46,10.00
2008,11,24,10,47,10.10
2008,11,24,10,48,10.20
2008,11,24,10,49,10.30
2008,11,24,10,50,10.30
2008,11,24,10,51,10.50
2008,11,24,10,52,10.60
2008,11,24,10,53,10.60
2008,11,24,10,54,10.70
2008,11,24,10,55,10.80
2008,11,24,10,56,10.80
2008,11,24,10,57,10.80
2008,11,24,10,58,10.90
2008,11,24,10,59,10.80
2008,11,24,11,00,10.80
2008,11,24,11,01,10.70
2008,11,24,11,02,10.70
2008,11,24,11,03,10.60
2008,11,24,11,04,10.50
2008,11,24,11,05,10.40
2008,11,24,11,06,10.20
2008,11,24,11,07,10.20
2008,11,24,11,08,10.10
2008,11,24,11,09,10.00
2008,11,24,11,10,9.90
2008,11,24,11,11,9.90
2008,11,24,11,12,9.80
2008,11,24,11,13,9.80
2008,11,24,11,14,9.70
2008,11,24,11,15,9.70
2008,11,24,11,16,9.70
2008,11,24,11,17,9.70
2008,11,24,11,18,9.60
2008,11,24,11,19,9.60
2008,11,24,11,20,9.60
2008,11,24,11,21,9.50
2008,11,24,11,22,9.50
2008,11,24,11,23,9.50
2008,11,24,11,24,9.50
2008,11,24,11,25,9.50
2008,11,24,11,26,9.50
2008,11,24,11,27,9.40
2008,11,24,11,28,9.40
2008,11,24,11,29,9.40
2008,11,24,11,30,9.40
2008,11,24,11,31,9.40
2008,11,24,11,32,9.30
2008,11,24,11,33,9.30
2008,11,24,11,34,9.30
2008,11,24,11,35,9.20
2008,11,24,11,36,9.20
2008,11,24,11,37,9.10
2008,11,24,11,38,9.10
2008,11,24,11,39,9.00
2008,11,24,11,40,9.00
2008,11,24,11,41,9.00
2008,11,24,11,42,9.00
2008,11,24,11,43,9.00
2008,11,24,11,44,9.00
2008,11,24,11,45,8.90
2008,11,24,11,46,8.90
2008,11,24,11,47,8.90
2008,11,24,11,48,8.90
2008,11,24,11,49,8.90
2008,11,24,11,50,8.90
2008,11,24,11,51,8.80
2008,11,24,11,52,8.80
2008,11,24,11,53,8.80
2008,11,24,11,54,8.80
2008,11,24,11,55,8.80
2008,11,24,11,56,8.80
2008,11,24,11,57,8.90
2008,11,24,11,58,8.90
2008,11,24,11,59,8.90
2008,11,24,12,00,8.90
2008,11,24,12,01,8.80
2008,11,24,12,02,8.80
2008,11,24,12,03,8.80
2008,11,24,12,04,8.80
2008,11,24,12,05,8.80
2008,11,24,12,06,8.90
2008,11,24,12,07,8.90
2008,11,24,12,08,8.90
2008,11,24,12,09,8.90
2008,11,24,12,10,8.90
2008,11,24,12,11,8.90
2008,11,24,12,12,8.90
2008,11,24,12,13,8.90
2008,11,24,12,14,8.90
2008,11,24,12,15,8.90
2008,11,24,12,16,9.00
2008,11,24,12,17,9.00
2008,11,24,12,18,9.10
2008,11,24,12,19,9.10
2008,11,24,12,20,9.10
2008,11,24,12,21,9.10
2008,11,24,12,22,9.10
2008,11,24,12,23,9.20
2008,11,24,12,24,9.20
2008,11,24,12,25,9.20
2008,11,24,12,26,9.30
2008,11,24,12,27,9.30
2008,11,24,12,28,9.40
2008,11,24,12,29,9.40
2008,11,24,12,30,9.50
2008,11,24,12,31,9.50
2008,11,24,12,32,9.50
2008,11,24,12,33,9.50
2008,11,24,12,34,9.50
2008,11,24,12,35,9.60
2008,11,24,12,36,9.70
2008,11,24,12,37,9.70
2008,11,24,12,38,9.70
2008,11,24,12,39,9.70
2008,11,24,12,40,9.70
2008,11,24,12,41,9.70
2008,11,24,12,42,9.80
2008,11,24,12,43,9.80
2008,11,24,12,44,9.90
2008,11,24,12,45,9.90
2008,11,24,12,46,10.00
2008,11,24,12,47,10.00
2008,11,24,12,48,10.10
2008,11,24,12,49,10.10
2008,11,24,12,50,10.20
2008,11,24,12,51,10.20
2008,11,24,12,52,10.20
2008,11,24,12,53,10.20
2008,11,24,12,54,10.10
2008,11,24,12,55,10.10
2008,11,24,12,56,10.00
2008,11,24,12,57,10.00
2008,11,24,12,58,10.00
2008,11,24,12,59,10.10
2008,11,24,13,00,10.10
2008,11,24,13,01,10.10
2008,11,24,13,02,10.10
2008,11,24,13,03,10.10
2008,11,24,13,04,10.10
2008,11,24,13,05,10.10
2008,11,24,13,06,10.10
2008,11,24,13,07,10.20
2008,11,24,13,08,10.20
2008,11,24,13,09,10.20
2008,11,24,13,10,10.20
2008,11,24,13,11,10.20
2008,11,24,13,12,10.20
2008,11,24,13,13,10.20
2008,11,24,13,14,10.30
2008,11,24,13,15,10.30
2008,11,24,13,16,10.30
2008,11,24,13,17,10.30
2008,11,24,13,18,10.30
2008,11,24,13,19,10.30
2008,11,24,13,20,10.30
2008,11,24,13,21,10.30
2008,11,24,13,22,10.30
2008,11,24,13,23,10.40
2008,11,24,13,24,10.40
2008,11,24,13,25,10.50
2008,11,24,13,26,10.60
2008,11,24,13,27,10.60
2008,11,24,13,28,10.60
2008,11,24,13,29,10.60
2008,11,24,13,30,10.60
2008,11,24,13,31,10.60
2008,11,24,13,32,10.70
2008,11,24,13,33,10.70
2008,11,24,13,34,10.70
2008,11,24,13,35,10.80
2008,11,24,13,36,10.80
2008,11,24,13,37,10.90
2008,11,24,13,38,10.90
2008,11,24,13,39,10.90
2008,11,24,13,40,10.80
2008,11,24,13,41,10.80
2008,11,24,13,42,10.80
2008,11,24,13,43,10.80
2008,11,24,13,44,10.80
2008,11,24,13,45,10.80
2008,11,24,13,46,10.80
2008,11,24,13,47,10.80
2008,11,24,13,48,10.80
2008,11,24,13,49,10.80
2008,11,24,13,50,10.80
2008,11,24,13,51,10.90
2008,11,24,13,52,10.90
2008,11,24,13,53,11.00
2008,11,24,13,54,11.10
2008,11,24,13,55,11.10
2008,11,24,13,56,11.20
2008,11,24,13,57,11.20
2008,11,24,13,58,11.20
2008,11,24,13,59,11.20
2008,11,24,14,00,11.20
2008,11,24,14,01,11.20
2008,11,24,14,02,11.30
2008,11,24,14,03,11.30
2008,11,24,14,04,11.30
2008,11,24,14,05,11.30
2008,11,24,14,06,11.30
2008,11,24,14,07,11.40
2008,11,24,14,08,11.40
2008,11,24,14,09,11.40
2008,11,24,14,10,11.40
2008,11,24,14,11,11.40
2008,11,24,14,12,11.40
2008,11,24,14,13,11.50
2008,11,24,14,14,11.50
2008,11,24,14,15,11.50
2008,11,24,14,16,11.50
2008,11,24,14,17,11.60
2008,11,24,14,18,11.60
2008,11,24,14,19,11.60
2008,11,24,14,20,11.70
2008,11,24,14,21,11.70
2008,11,24,14,22,11.70
2008,11,24,14,23,11.70
2008,11,24,14,24,11.70
2008,11,24,14,25,11.60
2008,11,24,14,26,11.60
2008,11,24,14,27,11.60
2008,11,24,14,28,11.60
2008,11,24,14,29,11.60
2008,11,24,14,30,11.60
2008,11,24,14,31,11.60
2008,11,24,14,32,11.60
2008,11,24,14,33,11.60
2008,11,24,14,34,11.60
2008,11,24,14,35,11.50
2008,11,24,14,36,11.50
2008,11,24,14,37,11.50
2008,11,24,14,38,11.50
2008,11,24,14,39,11.50
2008,11,24,14,40,11.40
2008,11,24,14,41,11.40
2008,11,24,14,42,11.40
2008,11,24,14,43,11.30
2008,11,24,14,44,11.40
2008,11,24,14,45,11.40
2008,11,24,14,46,11.40
2008,11,24,14,47,11.40
2008,11,24,14,48,11.40
2008,11,24,14,49,11.40
2008,11,24,14,50,11.40
2008,11,24,14,51,11.40
2008,11,24,14,52,11.50
2008,11,24,14,53,11.50
2008,11,24,14,54,11.50
2008,11,24,14,55,11.50
2008,11,24,14,56,11.50
2008,11,24,14,57,11.40
2008,11,24,14,58,11.40
2008,11,24,14,59,11.40
2008,11,24,15,00,11.40
2008,11,24,15,01,11.40
2008,11,24,15,02,11.40
2008,11,24,15,03,11.50
2008,11,24,15,04,11.50
2008,11,24,15,05,11.50
2008,11,24,15,06,11.40
2008,11,24,15,07,11.50
2008,11,24,15,08,11.50
2008,11,24,15,09,11.50
2008,11,24,15,10,11.40
2008,11,24,15,11,11.40
2008,11,24,15,12,11.40
2008,11,24,15,13,11.40
2008,11,24,15,14,11.40
2008,11,24,15,15,11.40
2008,11,24,15,16,11.40
2008,11,24,15,17,11.40
2008,11,24,15,18,11.40
2008,11,24,15,19,11.40
2008,11,24,15,20,11.40
2008,11,24,15,21,11.30
2008,11,24,15,22,11.30
2008,11,24,15,23,11.30
2008,11,24,15,24,11.30
2008,11,24,15,25,11.30
2008,11,24,15,26,11.30
2008,11,24,15,27,11.20
2008,11,24,15,28,11.20
2008,11,24,15,29,11.20
2008,11,24,15,30,11.20
2008,11,24,15,31,11.10
2008,11,24,15,32,11.10
2008,11,24,15,33,11.10
2008,11,24,15,34,11.00
2008,11,24,15,35,10.90
2008,11,24,15,36,10.90
2008,11,24,15,37,10.80
2008,11,24,15,38,10.80
2008,11,24,15,39,10.70
2008,11,24,15,40,10.70
2008,11,24,15,41,10.60
2008,11,24,15,42,10.50
2008,11,24,15,43,10.50
2008,11,24,15,44,10.40
2008,11,24,15,45,10.30
2008,11,24,15,46,10.30
2008,11,24,15,47,10.20
2008,11,24,15,48,10.20
2008,11,24,15,49,10.10
2008,11,24,15,50,10.10
2008,11,24,15,51,10.10
2008,11,24,15,52,10.00
2008,11,24,15,53,10.00
2008,11,24,15,54,9.90
2008,11,24,15,55,9.80
2008,11,24,15,56,9.70
2008,11,24,15,57,9.70
2008,11,24,15,58,9.60
2008,11,24,15,59,9.60
2008,11,24,16,00,9.60
2008,11,24,16,01,9.60
2008,11,24,16,02,9.60
2008,11,24,16,03,9.50
2008,11,24,16,04,9.50
2008,11,24,16,05,9.40
2008,11,24,16,06,9.40
2008,11,24,16,07,9.30
2008,11,24,16,08,9.30
2008,11,24,16,09,9.30
2008,11,24,16,10,9.20
2008,11,24,16,11,9.20
2008,11,24,16,12,9.20
2008,11,24,16,13,9.20
2008,11,24,16,14,9.10
2008,11,24,16,15,9.10
2008,11,24,16,16,9.00
2008,11,24,16,17,9.00
2008,11,24,16,18,8.90
2008,11,24,16,19,8.90
2008,11,24,16,20,8.90
2008,11,24,16,21,8.90
2008,11,24,16,22,8.90
2008,11,24,16,23,8.80
2008,11,24,16,24,8.80
2008,11,24,16,25,8.80
2008,11,24,16,26,8.70
2008,11,24,16,27,8.70
2008,11,24,16,28,8.70
2008,11,24,16,29,8.70
2008,11,24,16,30,8.60
2008,11,24,16,31,8.60
2008,11,24,16,32,8.60
2008,11,24,16,33,8.60
2008,11,24,16,34,8.50
2008,11,24,16,35,8.50
2008,11,24,16,36,8.50
2008,11,24,16,37,8.40
2008,11,24,16,38,8.40
2008,11,24,16,39,8.40
2008,11,24,16,40,8.30
2008,11,24,16,41,8.30
2008,11,24,16,42,8.30
2008,11,24,16,43,8.30
2008,11,24,16,44,8.20
2008,11,24,16,45,8.20
2008,11,24,16,46,8.10
2008,11,24,16,47,8.00
2008,11,24,16,48,8.00
2008,11,24,16,49,7.80
2008,11,24,16,50,7.70
2008,11,24,16,51,7.60
2008,11,24,16,52,7.50
2008,11,24,16,53,7.40
2008,11,24,16,54,7.30
2008,11,24,16,55,7.20
2008,11,24,16,56,7.10
2008,11,24,16,57,7.00
2008,11,24,16,58,6.90
2008,11,24,16,59,6.90
2008,11,24,17,00,6.80
2008,11,24,17,01,6.80
2008,11,24,17,02,6.70
2008,11,24,17,03,6.70
2008,11,24,17,04,6.70
2008,11,24,17,05,6.70
2008,11,24,17,06,6.70
2008,11,24,17,07,6.60
2008,11,24,17,08,6.60
2008,11,24,17,09,6.60
2008,11,24,17,10,6.60
2008,11,24,17,11,6.60
2008,11,24,17,12,6.50
2008,11,24,17,13,6.50
2008,11,24,17,14,6.40
2008,11,24,17,15,6.40
2008,11,24,17,16,6.30
2008,11,24,17,17,6.30
2008,11,24,17,18,6.20
2008,11,24,17,19,6.20
2008,11,24,17,20,6.10
2008,11,24,17,21,6.00
2008,11,24,17,22,6.00
2008,11,24,17,23,5.90
2008,11,24,17,24,5.80
2008,11,24,17,25,5.70
2008,11,24,17,26,5.60
2008,11,24,17,27,5.50
2008,11,24,17,28,5.40
2008,11,24,17,29,5.30
2008,11,24,17,30,5.30
2008,11,24,17,31,5.20
2008,11,24,17,32,5.20
2008,11,24,17,33,5.20
2008,11,24,17,34,5.20
2008,11,24,17,35,5.20
2008,11,24,17,36,5.20
2008,11,24,17,37,5.20
2008,11,24,17,38,5.20
2008,11,24,17,39,5.20
2008,11,24,17,40,5.30
2008,11,24,17,41,5.30
2008,11,24,17,42,5.30
2008,11,24,17,43,5.30
2008,11,24,17,44,5.30
2008,11,24,17,45,5.40
2008,11,24,17,46,5.40
2008,11,24,17,47,5.30
2008,11,24,17,48,5.30
2008,11,24,17,49,5.30
2008,11,24,17,50,5.30
2008,11,24,17,51,5.30
2008,11,24,17,52,5.20
2008,11,24,17,53,5.20
2008,11,24,17,54,5.20
2008,11,24,17,55,5.20
2008,11,24,17,56,5.20
2008,11,24,17,57,5.10